This demonstration page uses our WeatherBlox Daily Observations layout. Learn more.

Left ArrowRight Arrow

39.01783, -85.05884

Hourly Observations for February 13, 2017

Temp ( °F °C ) Dew Point ( °F °C ) Humidity (%) Winds ( mph kmh ) Pressure ( in mb ) Visibility ( mi km ) Precip ( " mm )
12:52 am 00:52 Clear 35 1.7 21 -6.1 57 57 NW 10 17 30.31 1026 10 16 0.00 0.00
1:52 am 01:52 Clear 34 1.1 20 -6.7 56 56 NW 10 17 30.32 1027 10 16 0.00 0.00
2:52 am 02:52 Clear 33 0.6 20 -6.7 58 58 NNW 8 13 30.32 1027 10 16 0.00 0.00
3:52 am 03:52 Clear 30 -1.1 20 -6.7 66 66 W 7 11 30.32 1027 10 16 0.00 0.00
4:52 am 04:52 Clear 28 -2.2 20 -6.7 72 72 W 8 13 30.32 1027 10 16 0.00 0.00
5:52 am 05:52 Clear 28 -2.2 21 -6.1 75 75 W 7 11 30.33 1027 10 16 0.00 0.00
6:52 am 06:52 Clear 28 -2.2 21 -6.1 75 75 W 6 9 30.34 1027 10 16 0.00 0.00
7:52 am 07:52 Sunny 29 -1.7 21 -6.1 72 72 Calm 30.35 1028 10 16 0.00 0.00
8:52 am 08:52 Sunny 32 0 23 -5 69 69 W 7 11 30.37 1028 10 16 0.00 0.00
9:52 am 09:52 Mostly Sunny 36 2.2 22 -5.6 57 57 NW 6 9 30.37 1028 10 16 0.00 0.00
10:52 am 10:52 Mostly Sunny 39 3.9 19 -7.2 45 45 NNW 3 6 30.35 1028 10 16 0.00 0.00
11:52 am 11:52 Mostly Sunny 42 5.6 19 -7.2 40 40 NW 7 11 30.35 1028 10 16 0.00 0.00
12:52 pm 12:52 Mostly Cloudy 43 6.1 18 -7.8 37 37 NNW 6 9 30.30 1026 10 16 0.00 0.00
2:52 pm 14:52 Mostly Cloudy 45 7.2 17 -8.3 33 33 SSW 5 7 30.24 1024 10 16 0.00 0.00
3:52 pm 15:52 Mostly Cloudy 46 8 18 -8 32 32 SW 7 11 30.24 1024 10 16 0.00 0.00
4:52 pm 16:52 Mostly Cloudy 48 8.9 15 -9.4 27 27 W 8 13 30.19 1022 10 16 0.00 0.00
5:52 pm 17:52 Partly Cloudy 45 7.2 14 -10 29 29 WSW 5 7 30.17 1022 10 16 0.00 0.00
6:52 pm 18:52 Mostly Clear 42 5.6 13 -10.6 30 30 SW 6 9 30.16 1021 10 16 0.00 0.00
7:52 pm 19:52 Clear 40 4.4 16 -8.9 38 38 WNW 3 6 30.15 1021 10 16 0.00 0.00
8:52 pm 20:52 Clear 34 1.1 22 -5.6 61 61 Calm 30.14 1021 10 16 0.00 0.00
9:52 pm 21:52 Mostly Clear 33 0.6 18 -7.8 54 54 Calm 30.13 1020 10 16 0.00 0.00
10:52 pm 22:52 Mostly Cloudy 33 0.6 20 -6.7 58 58 Calm 30.10 1019 10 16 0.00 0.00
11:52 pm 23:52 Cloudy 34 1.1 24 -4.4 67 67 SSW 6 9 30.08 1019 10 16 0.00 0.00

Powered by AerisWeather